Year,Month,Day,Hour,Minute,Value (Times are PST for temperature in C)
2015,07,09,00,00,17.40
2015,07,09,00,01,17.40
2015,07,09,00,02,17.40
2015,07,09,00,03,17.40
2015,07,09,00,04,17.40
2015,07,09,00,05,17.40
2015,07,09,00,06,17.40
2015,07,09,00,07,17.30
2015,07,09,00,08,17.30
2015,07,09,00,09,17.30
2015,07,09,00,10,17.30
2015,07,09,00,11,17.30
2015,07,09,00,12,17.30
2015,07,09,00,13,17.30
2015,07,09,00,14,17.30
2015,07,09,00,15,17.30
2015,07,09,00,16,17.30
2015,07,09,00,17,17.30
2015,07,09,00,18,17.30
2015,07,09,00,19,17.30
2015,07,09,00,20,17.30
2015,07,09,00,21,17.20
2015,07,09,00,22,17.20
2015,07,09,00,23,17.20
2015,07,09,00,24,17.20
2015,07,09,00,25,17.20
2015,07,09,00,26,17.20
2015,07,09,00,27,17.10
2015,07,09,00,28,17.10
2015,07,09,00,29,17.10
2015,07,09,00,30,17.10
2015,07,09,00,31,17.10
2015,07,09,00,32,17.00
2015,07,09,00,33,17.00
2015,07,09,00,34,17.00
2015,07,09,00,35,17.00
2015,07,09,00,36,16.90
2015,07,09,00,37,16.90
2015,07,09,00,38,16.90
2015,07,09,00,39,16.90
2015,07,09,00,40,16.90
2015,07,09,00,41,16.80
2015,07,09,00,42,16.80
2015,07,09,00,43,16.80
2015,07,09,00,44,16.80
2015,07,09,00,45,16.80
2015,07,09,00,46,16.80
2015,07,09,00,47,16.70
2015,07,09,00,48,16.70
2015,07,09,00,49,16.70
2015,07,09,00,50,16.70
2015,07,09,00,51,16.70
2015,07,09,00,52,16.70
2015,07,09,00,53,16.70
2015,07,09,00,54,16.70
2015,07,09,00,55,16.70
2015,07,09,00,56,16.70
2015,07,09,00,57,16.70
2015,07,09,00,58,16.60
2015,07,09,00,59,16.60
2015,07,09,01,00,16.60
2015,07,09,01,01,16.60
2015,07,09,01,02,16.60
2015,07,09,01,03,16.50
2015,07,09,01,04,16.50
2015,07,09,01,05,16.50
2015,07,09,01,06,16.40
2015,07,09,01,07,16.40
2015,07,09,01,08,16.40
2015,07,09,01,09,16.40
2015,07,09,01,10,16.30
2015,07,09,01,11,16.30
2015,07,09,01,12,16.30
2015,07,09,01,13,16.30
2015,07,09,01,14,16.30
2015,07,09,01,15,16.20
2015,07,09,01,16,16.20
2015,07,09,01,17,16.20
2015,07,09,01,18,16.20
2015,07,09,01,19,16.20
2015,07,09,01,20,16.20
2015,07,09,01,21,16.20
2015,07,09,01,22,16.20
2015,07,09,01,23,16.20
2015,07,09,01,24,16.20
2015,07,09,01,25,16.20
2015,07,09,01,26,16.20
2015,07,09,01,27,16.10
2015,07,09,01,28,16.10
2015,07,09,01,29,16.10
2015,07,09,01,30,16.00
2015,07,09,01,31,16.00
2015,07,09,01,32,16.00
2015,07,09,01,33,16.00
2015,07,09,01,34,15.90
2015,07,09,01,35,15.90
2015,07,09,01,36,15.90
2015,07,09,01,37,15.90
2015,07,09,01,38,15.90
2015,07,09,01,39,15.90
2015,07,09,01,40,15.90
2015,07,09,01,41,15.80
2015,07,09,01,42,15.80
2015,07,09,01,43,15.80
2015,07,09,01,44,15.80
2015,07,09,01,45,15.80
2015,07,09,01,46,15.70
2015,07,09,01,47,15.70
2015,07,09,01,48,15.70
2015,07,09,01,49,15.70
2015,07,09,01,50,15.70
2015,07,09,01,51,15.70
2015,07,09,01,52,15.70
2015,07,09,01,53,15.70
2015,07,09,01,54,15.70
2015,07,09,01,55,15.60
2015,07,09,01,56,15.60
2015,07,09,01,57,15.60
2015,07,09,01,58,15.60
2015,07,09,01,59,15.60
2015,07,09,02,00,15.60
2015,07,09,02,01,15.60
2015,07,09,02,02,15.60
2015,07,09,02,03,15.50
2015,07,09,02,04,15.50
2015,07,09,02,05,15.50
2015,07,09,02,06,15.50
2015,07,09,02,07,15.40
2015,07,09,02,08,15.40
2015,07,09,02,09,15.40
2015,07,09,02,10,15.40
2015,07,09,02,11,15.40
2015,07,09,02,12,15.30
2015,07,09,02,13,15.30
2015,07,09,02,14,15.30
2015,07,09,02,15,15.30
2015,07,09,02,16,15.30
2015,07,09,02,17,15.30
2015,07,09,02,18,15.20
2015,07,09,02,19,15.20
2015,07,09,02,20,15.20
2015,07,09,02,21,15.20
2015,07,09,02,22,15.10
2015,07,09,02,23,15.10
2015,07,09,02,24,15.00
2015,07,09,02,25,15.00
2015,07,09,02,26,15.00
2015,07,09,02,27,15.00
2015,07,09,02,28,15.00
2015,07,09,02,29,15.00
2015,07,09,02,30,15.00
2015,07,09,02,31,15.00
2015,07,09,02,32,15.00
2015,07,09,02,33,15.00
2015,07,09,02,34,15.00
2015,07,09,02,35,15.00
2015,07,09,02,36,15.00
2015,07,09,02,37,15.00
2015,07,09,02,38,15.00
2015,07,09,02,39,15.00
2015,07,09,02,40,15.00
2015,07,09,02,41,15.00
2015,07,09,02,42,15.00
2015,07,09,02,43,15.00
2015,07,09,02,44,15.00
2015,07,09,02,45,15.00
2015,07,09,02,46,15.00
2015,07,09,02,47,15.00
2015,07,09,02,48,15.00
2015,07,09,02,49,15.00
2015,07,09,02,50,15.00
2015,07,09,02,51,14.90
2015,07,09,02,52,14.90
2015,07,09,02,53,14.90
2015,07,09,02,54,14.90
2015,07,09,02,55,14.80
2015,07,09,02,56,14.80
2015,07,09,02,57,14.80
2015,07,09,02,58,14.80
2015,07,09,02,59,14.80
2015,07,09,03,00,14.80
2015,07,09,03,01,14.80
2015,07,09,03,02,14.80
2015,07,09,03,03,14.80
2015,07,09,03,04,14.80
2015,07,09,03,05,14.80
2015,07,09,03,06,14.80
2015,07,09,03,07,14.80
2015,07,09,03,08,14.70
2015,07,09,03,09,14.70
2015,07,09,03,10,14.70
2015,07,09,03,11,14.70
2015,07,09,03,12,14.70
2015,07,09,03,13,14.60
2015,07,09,03,14,14.60
2015,07,09,03,15,14.60
2015,07,09,03,16,14.60
2015,07,09,03,17,14.50
2015,07,09,03,18,14.50
2015,07,09,03,19,14.50
2015,07,09,03,20,14.50
2015,07,09,03,21,14.40
2015,07,09,03,22,14.40
2015,07,09,03,23,14.40
2015,07,09,03,24,14.40
2015,07,09,03,25,14.40
2015,07,09,03,26,14.40
2015,07,09,03,27,14.40
2015,07,09,03,28,14.40
2015,07,09,03,29,14.40
2015,07,09,03,30,14.30
2015,07,09,03,31,14.30
2015,07,09,03,32,14.30
2015,07,09,03,33,14.30
2015,07,09,03,34,14.30
2015,07,09,03,35,14.30
2015,07,09,03,36,14.20
2015,07,09,03,37,14.20
2015,07,09,03,38,14.20
2015,07,09,03,39,14.20
2015,07,09,03,40,14.20
2015,07,09,03,41,14.20
2015,07,09,03,42,14.20
2015,07,09,03,43,14.20
2015,07,09,03,44,14.10
2015,07,09,03,45,14.10
2015,07,09,03,49,14.10
2015,07,09,03,50,14.10
2015,07,09,03,51,14.00
2015,07,09,03,52,14.00
2015,07,09,03,53,14.00
2015,07,09,03,54,14.00
2015,07,09,03,55,14.10
2015,07,09,03,56,14.10
2015,07,09,03,57,14.10
2015,07,09,03,58,14.10
2015,07,09,03,59,14.10
2015,07,09,04,00,14.10
2015,07,09,04,01,14.10
2015,07,09,04,02,14.10
2015,07,09,04,03,14.10
2015,07,09,04,04,14.10
2015,07,09,04,05,14.10
2015,07,09,04,06,14.10
2015,07,09,04,07,14.10
2015,07,09,04,08,14.10
2015,07,09,04,09,14.00
2015,07,09,04,10,14.00
2015,07,09,04,11,14.00
2015,07,09,04,12,14.00
2015,07,09,04,13,13.90
2015,07,09,04,14,13.90
2015,07,09,04,15,13.90
2015,07,09,04,16,13.90
2015,07,09,04,17,13.90
2015,07,09,04,18,13.90
2015,07,09,04,19,13.90
2015,07,09,04,20,13.90
2015,07,09,04,21,13.90
2015,07,09,04,22,13.90
2015,07,09,04,23,13.90
2015,07,09,04,24,13.90
2015,07,09,04,25,13.90
2015,07,09,04,26,13.90
2015,07,09,04,27,13.90
2015,07,09,04,28,13.90
2015,07,09,04,29,13.80
2015,07,09,04,30,13.80
2015,07,09,04,31,13.80
2015,07,09,04,32,13.80
2015,07,09,04,33,13.80
2015,07,09,04,34,13.80
2015,07,09,04,35,13.70
2015,07,09,04,36,13.70
2015,07,09,04,37,13.70
2015,07,09,04,38,13.70
2015,07,09,04,39,13.70
2015,07,09,04,40,13.70
2015,07,09,04,41,13.70
2015,07,09,04,42,13.70
2015,07,09,04,43,13.70
2015,07,09,04,44,13.60
2015,07,09,04,45,13.60
2015,07,09,04,46,13.60
2015,07,09,04,47,13.60
2015,07,09,04,48,13.60
2015,07,09,04,49,13.60
2015,07,09,04,50,13.60
2015,07,09,04,51,13.60
2015,07,09,04,52,13.50
2015,07,09,04,53,13.50
2015,07,09,04,54,13.50
2015,07,09,04,55,13.40
2015,07,09,04,56,13.40
2015,07,09,04,57,13.40
2015,07,09,04,58,13.40
2015,07,09,04,59,13.40
2015,07,09,05,00,13.40
2015,07,09,05,01,13.30
2015,07,09,05,02,13.30
2015,07,09,05,03,13.30
2015,07,09,05,04,13.30
2015,07,09,05,05,13.30
2015,07,09,05,06,13.30
2015,07,09,05,07,13.20
2015,07,09,05,08,13.20
2015,07,09,05,09,13.20
2015,07,09,05,10,13.20
2015,07,09,05,11,13.20
2015,07,09,05,12,13.20
2015,07,09,05,13,13.20
2015,07,09,05,14,13.20
2015,07,09,05,15,13.20
2015,07,09,05,16,13.20
2015,07,09,05,17,13.20
2015,07,09,05,18,13.20
2015,07,09,05,19,13.20
2015,07,09,05,20,13.20
2015,07,09,05,21,13.20
2015,07,09,05,22,13.10
2015,07,09,05,23,13.10
2015,07,09,05,24,13.10
2015,07,09,05,25,13.10
2015,07,09,05,26,13.10
2015,07,09,05,27,13.10
2015,07,09,05,28,13.10
2015,07,09,05,29,13.10
2015,07,09,05,30,13.10
2015,07,09,05,31,13.10
2015,07,09,05,32,13.00
2015,07,09,05,33,13.00
2015,07,09,05,34,13.00
2015,07,09,05,35,13.00
2015,07,09,05,36,13.00
2015,07,09,05,37,13.00
2015,07,09,05,38,13.00
2015,07,09,05,39,13.00
2015,07,09,05,40,13.00
2015,07,09,05,41,13.00
2015,07,09,05,42,13.00
2015,07,09,05,43,13.00
2015,07,09,05,44,13.00
2015,07,09,05,45,13.00
2015,07,09,05,46,12.90
2015,07,09,05,47,13.00
2015,07,09,05,48,12.90
2015,07,09,05,49,12.90
2015,07,09,05,50,12.90
2015,07,09,05,51,12.90
2015,07,09,05,52,12.90
2015,07,09,05,53,12.90
2015,07,09,05,54,12.90
2015,07,09,05,55,12.90
2015,07,09,05,56,12.90
2015,07,09,05,57,12.90
2015,07,09,05,58,12.90
2015,07,09,05,59,13.00
2015,07,09,06,00,13.00
2015,07,09,06,01,13.10
2015,07,09,06,02,13.10
2015,07,09,06,03,13.10
2015,07,09,06,04,13.10
2015,07,09,06,05,13.10
2015,07,09,06,06,13.10
2015,07,09,06,07,13.10
2015,07,09,06,08,13.10
2015,07,09,06,09,13.10
2015,07,09,06,10,13.10
2015,07,09,06,11,13.10
2015,07,09,06,12,13.10
2015,07,09,06,13,13.10
2015,07,09,06,14,13.10
2015,07,09,06,15,13.10
2015,07,09,06,16,13.10
2015,07,09,06,17,13.10
2015,07,09,06,18,13.10
2015,07,09,06,19,13.10
2015,07,09,06,20,13.10
2015,07,09,06,21,13.10
2015,07,09,06,22,13.10
2015,07,09,06,23,13.10
2015,07,09,06,24,13.10
2015,07,09,06,25,13.20
2015,07,09,06,26,13.20
2015,07,09,06,27,13.20
2015,07,09,06,28,13.20
2015,07,09,06,29,13.20
2015,07,09,06,30,13.20
2015,07,09,06,31,13.20
2015,07,09,06,32,13.30
2015,07,09,06,33,13.30
2015,07,09,06,34,13.40
2015,07,09,06,35,13.40
2015,07,09,06,36,13.50
2015,07,09,06,37,13.60
2015,07,09,06,38,13.60
2015,07,09,06,39,13.70
2015,07,09,06,40,13.80
2015,07,09,06,41,13.80
2015,07,09,06,42,13.80
2015,07,09,06,43,13.80
2015,07,09,06,44,13.90
2015,07,09,06,45,13.90
2015,07,09,06,46,13.90
2015,07,09,06,47,14.00
2015,07,09,06,48,14.10
2015,07,09,06,49,14.10
2015,07,09,06,50,14.20
2015,07,09,06,51,14.30
2015,07,09,06,52,14.40
2015,07,09,06,53,14.50
2015,07,09,06,54,14.50
2015,07,09,06,55,14.60
2015,07,09,06,56,14.70
2015,07,09,06,57,14.80
2015,07,09,06,58,14.80
2015,07,09,06,59,14.90
2015,07,09,07,00,15.00
2015,07,09,07,01,15.00
2015,07,09,07,02,15.00
2015,07,09,07,03,15.00
2015,07,09,07,04,15.00
2015,07,09,07,05,15.00
2015,07,09,07,06,15.00
2015,07,09,07,07,15.00
2015,07,09,07,08,15.10
2015,07,09,07,09,15.20
2015,07,09,07,10,15.30
2015,07,09,07,11,15.40
2015,07,09,07,12,15.40
2015,07,09,07,13,15.50
2015,07,09,07,14,15.60
2015,07,09,07,15,15.60
2015,07,09,07,16,15.70
2015,07,09,07,17,15.80
2015,07,09,07,18,15.80
2015,07,09,07,19,15.90
2015,07,09,07,20,15.90
2015,07,09,07,21,16.00
2015,07,09,07,22,16.00
2015,07,09,07,23,16.00
2015,07,09,07,24,16.10
2015,07,09,07,25,16.20
2015,07,09,07,26,16.20
2015,07,09,07,27,16.30
2015,07,09,07,28,16.30
2015,07,09,07,29,16.30
2015,07,09,07,30,16.30
2015,07,09,07,31,16.40
2015,07,09,07,32,16.40
2015,07,09,07,33,16.30
2015,07,09,07,34,16.30
2015,07,09,07,35,16.30
2015,07,09,07,36,16.20
2015,07,09,07,37,16.10
2015,07,09,07,38,16.00
2015,07,09,07,39,16.00
2015,07,09,07,40,15.90
2015,07,09,07,41,15.90
2015,07,09,07,42,15.80
2015,07,09,07,43,15.80
2015,07,09,07,44,15.70
2015,07,09,07,45,15.70
2015,07,09,07,46,15.70
2015,07,09,07,47,15.60
2015,07,09,07,48,15.60
2015,07,09,07,49,15.60
2015,07,09,07,50,15.60
2015,07,09,07,51,15.60
2015,07,09,07,52,15.60
2015,07,09,07,53,15.60
2015,07,09,07,54,15.60
2015,07,09,07,55,15.60
2015,07,09,07,56,15.60
2015,07,09,07,57,15.70
2015,07,09,07,58,15.70
2015,07,09,07,59,15.80
2015,07,09,08,00,15.80
2015,07,09,08,01,15.90
2015,07,09,08,02,16.00
2015,07,09,08,03,16.10
2015,07,09,08,04,16.20
2015,07,09,08,05,16.30
2015,07,09,08,06,16.40
2015,07,09,08,07,16.40
2015,07,09,08,08,16.40
2015,07,09,08,09,16.50
2015,07,09,08,10,16.50
2015,07,09,08,11,16.60
2015,07,09,08,12,16.60
2015,07,09,08,13,16.70
2015,07,09,08,14,16.80
2015,07,09,08,15,16.80
2015,07,09,08,16,16.80
2015,07,09,08,17,16.90
2015,07,09,08,18,16.90
2015,07,09,08,19,16.90
2015,07,09,08,20,16.90
2015,07,09,08,21,17.00
2015,07,09,08,22,17.10
2015,07,09,08,23,17.20
2015,07,09,08,24,17.30
2015,07,09,08,25,17.40
2015,07,09,08,26,17.50
2015,07,09,08,27,17.60
2015,07,09,08,28,17.70
2015,07,09,08,29,17.70
2015,07,09,08,30,17.80
2015,07,09,08,31,17.80
2015,07,09,08,32,17.90
2015,07,09,08,33,17.90
2015,07,09,08,34,18.00
2015,07,09,08,35,18.00
2015,07,09,08,36,17.90
2015,07,09,08,37,17.90
2015,07,09,08,38,17.90
2015,07,09,08,39,17.80
2015,07,09,08,40,17.80
2015,07,09,08,41,17.70
2015,07,09,08,42,17.70
2015,07,09,08,43,17.70
2015,07,09,08,44,17.70
2015,07,09,08,45,17.80
2015,07,09,08,46,17.80
2015,07,09,08,47,17.80
2015,07,09,08,48,17.80
2015,07,09,08,49,17.90
2015,07,09,08,50,17.90
2015,07,09,08,51,17.90
2015,07,09,08,52,17.90
2015,07,09,08,53,17.90
2015,07,09,08,54,17.90
2015,07,09,08,55,18.00
2015,07,09,08,56,18.10
2015,07,09,08,57,18.10
2015,07,09,08,58,18.20
2015,07,09,08,59,18.30
2015,07,09,09,00,18.40
2015,07,09,09,01,18.50
2015,07,09,09,02,18.60
2015,07,09,09,03,18.60
2015,07,09,09,04,18.70
2015,07,09,09,05,18.70
2015,07,09,09,06,18.60
2015,07,09,09,07,18.60
2015,07,09,09,08,18.60
2015,07,09,09,09,18.60
2015,07,09,09,10,18.60
2015,07,09,09,11,18.70
2015,07,09,09,12,18.70
2015,07,09,09,13,18.80
2015,07,09,09,14,18.90
2015,07,09,09,15,18.90
2015,07,09,09,16,18.90
2015,07,09,09,17,18.90
2015,07,09,09,18,19.00
2015,07,09,09,19,19.10
2015,07,09,09,20,19.10
2015,07,09,09,21,19.20
2015,07,09,09,22,19.20
2015,07,09,09,23,19.30
2015,07,09,09,24,19.30
2015,07,09,09,25,19.30
2015,07,09,09,26,19.40
2015,07,09,09,27,19.50
2015,07,09,09,28,19.60
2015,07,09,09,29,19.60
2015,07,09,09,30,19.60
2015,07,09,09,31,19.70
2015,07,09,09,32,19.70
2015,07,09,09,33,19.80
2015,07,09,09,34,19.90
2015,07,09,09,35,20.00
2015,07,09,09,36,20.00
2015,07,09,09,37,20.00
2015,07,09,09,38,20.10
2015,07,09,09,39,20.10
2015,07,09,09,40,20.20
2015,07,09,09,41,20.30
2015,07,09,09,42,20.30
2015,07,09,09,43,20.30
2015,07,09,09,44,20.40
2015,07,09,09,45,20.40
2015,07,09,09,46,20.50
2015,07,09,09,47,20.50
2015,07,09,09,48,20.60
2015,07,09,09,49,20.70
2015,07,09,09,50,20.70
2015,07,09,09,51,20.70
2015,07,09,09,52,20.70
2015,07,09,09,53,20.70
2015,07,09,09,54,20.70
2015,07,09,09,55,20.70
2015,07,09,09,56,20.70
2015,07,09,09,57,20.70
2015,07,09,09,58,20.60
2015,07,09,09,59,20.60
2015,07,09,10,00,20.60
2015,07,09,10,01,20.50
2015,07,09,10,02,20.60
2015,07,09,10,03,20.60
2015,07,09,10,04,20.50
2015,07,09,10,05,20.40
2015,07,09,10,06,20.40
2015,07,09,10,07,20.30
2015,07,09,10,08,20.30
2015,07,09,10,09,20.30
2015,07,09,10,10,20.30
2015,07,09,10,11,20.30
2015,07,09,10,12,20.30
2015,07,09,10,13,20.40
2015,07,09,10,14,20.50
2015,07,09,10,15,20.60
2015,07,09,10,16,20.60
2015,07,09,10,17,20.60
2015,07,09,10,18,20.50
2015,07,09,10,19,20.50
2015,07,09,10,20,20.50
2015,07,09,10,21,20.60
2015,07,09,10,22,20.60
2015,07,09,10,23,20.70
2015,07,09,10,24,20.70
2015,07,09,10,25,20.70
2015,07,09,10,26,20.70
2015,07,09,10,27,20.70
2015,07,09,10,28,20.70
2015,07,09,10,29,20.70
2015,07,09,10,30,20.80
2015,07,09,10,31,20.80
2015,07,09,10,32,20.90
2015,07,09,10,33,20.90
2015,07,09,10,34,20.90
2015,07,09,10,35,20.90
2015,07,09,10,36,20.90
2015,07,09,10,37,20.90
2015,07,09,10,38,20.90
2015,07,09,10,39,20.90
2015,07,09,10,40,21.00
2015,07,09,10,41,21.00
2015,07,09,10,42,21.10
2015,07,09,10,43,21.20
2015,07,09,10,44,21.20
2015,07,09,10,45,21.20
2015,07,09,10,46,21.10
2015,07,09,10,47,21.10
2015,07,09,10,48,21.10
2015,07,09,10,49,21.10
2015,07,09,10,50,21.10
2015,07,09,10,51,21.10
2015,07,09,10,52,21.10
2015,07,09,10,53,21.10
2015,07,09,10,54,21.10
2015,07,09,10,55,21.10
2015,07,09,10,56,21.10
2015,07,09,10,57,21.20
2015,07,09,10,58,21.20
2015,07,09,10,59,21.20
2015,07,09,11,00,21.30
2015,07,09,11,01,21.30
2015,07,09,11,02,21.30
2015,07,09,11,03,21.40
2015,07,09,11,04,21.40
2015,07,09,11,05,21.40
2015,07,09,11,06,21.50
2015,07,09,11,07,21.60
2015,07,09,11,08,21.60
2015,07,09,11,09,21.60
2015,07,09,11,10,21.70
2015,07,09,11,11,21.80
2015,07,09,11,12,21.80
2015,07,09,11,13,21.80
2015,07,09,11,14,21.80
2015,07,09,11,15,21.80
2015,07,09,11,16,21.80
2015,07,09,11,17,21.80
2015,07,09,11,18,21.80
2015,07,09,11,19,21.80
2015,07,09,11,20,21.80
2015,07,09,11,21,21.90
2015,07,09,11,22,22.00
2015,07,09,11,23,22.10
2015,07,09,11,24,22.20
2015,07,09,11,25,22.30
2015,07,09,11,26,22.40
2015,07,09,11,27,22.50
2015,07,09,11,28,22.60
2015,07,09,11,29,22.70
2015,07,09,11,30,22.80
2015,07,09,11,31,22.80
2015,07,09,11,32,22.80
2015,07,09,11,33,22.80
2015,07,09,11,34,22.80
2015,07,09,11,35,22.80
2015,07,09,11,36,22.70
2015,07,09,11,37,22.60
2015,07,09,11,38,22.70
2015,07,09,11,39,22.70
2015,07,09,11,40,22.80
2015,07,09,11,41,22.90
2015,07,09,11,42,22.90
2015,07,09,11,43,23.00
2015,07,09,11,44,23.10
2015,07,09,11,45,23.20
2015,07,09,11,46,23.20
2015,07,09,11,47,23.20
2015,07,09,11,48,23.10
2015,07,09,11,49,23.00
2015,07,09,11,50,23.00
2015,07,09,11,51,23.00
2015,07,09,11,52,22.90
2015,07,09,11,53,22.90
2015,07,09,11,54,22.90
2015,07,09,11,55,22.90
2015,07,09,11,56,22.90
2015,07,09,11,57,22.80
2015,07,09,11,58,22.80
2015,07,09,11,59,22.70
2015,07,09,12,00,22.70
2015,07,09,12,01,22.70
2015,07,09,12,02,22.70
2015,07,09,12,03,22.80
2015,07,09,12,04,22.80
2015,07,09,12,05,22.90
2015,07,09,12,06,22.90
2015,07,09,12,07,22.90
2015,07,09,12,08,22.80
2015,07,09,12,09,22.60
2015,07,09,12,10,22.50
2015,07,09,12,11,22.50
2015,07,09,12,12,22.50
2015,07,09,12,13,22.60
2015,07,09,12,14,22.60
2015,07,09,12,15,22.70
2015,07,09,12,16,22.70
2015,07,09,12,17,22.70
2015,07,09,12,18,22.70
2015,07,09,12,19,22.70
2015,07,09,12,20,22.80
2015,07,09,12,21,22.80
2015,07,09,12,22,22.80
2015,07,09,12,23,22.70
2015,07,09,12,24,22.70
2015,07,09,12,25,22.70
2015,07,09,12,26,22.80
2015,07,09,12,27,22.80
2015,07,09,12,28,22.80
2015,07,09,12,29,22.90
2015,07,09,12,30,23.00
2015,07,09,12,31,23.00
2015,07,09,12,32,23.00
2015,07,09,12,33,23.10
2015,07,09,12,34,23.10
2015,07,09,12,35,23.10
2015,07,09,12,36,23.10
2015,07,09,12,37,23.10
2015,07,09,12,38,23.10
2015,07,09,12,39,23.20
2015,07,09,12,40,23.30
2015,07,09,12,41,23.40
2015,07,09,12,42,23.50
2015,07,09,12,43,23.60
2015,07,09,12,44,23.70
2015,07,09,12,45,23.60
2015,07,09,12,46,23.60
2015,07,09,12,47,23.60
2015,07,09,12,48,23.50
2015,07,09,12,49,23.50
2015,07,09,12,50,23.60
2015,07,09,12,51,23.60
2015,07,09,12,52,23.60
2015,07,09,12,53,23.60
2015,07,09,12,54,23.60
2015,07,09,12,55,23.60
2015,07,09,12,56,23.60
2015,07,09,12,57,23.70
2015,07,09,12,58,23.70
2015,07,09,12,59,23.80
2015,07,09,13,00,23.80
2015,07,09,13,01,23.90
2015,07,09,13,02,23.90
2015,07,09,13,03,23.90
2015,07,09,13,04,23.80
2015,07,09,13,05,23.60
2015,07,09,13,06,23.50
2015,07,09,13,07,23.40
2015,07,09,13,08,23.30
2015,07,09,13,09,23.30
2015,07,09,13,10,23.30
2015,07,09,13,11,23.40
2015,07,09,13,12,23.50
2015,07,09,13,13,23.50
2015,07,09,13,14,23.60
2015,07,09,13,15,23.70
2015,07,09,13,16,23.80
2015,07,09,13,17,23.80
2015,07,09,13,18,23.80
2015,07,09,13,19,23.90
2015,07,09,13,20,23.90
2015,07,09,13,21,24.00
2015,07,09,13,22,23.90
2015,07,09,13,23,23.90
2015,07,09,13,24,23.90
2015,07,09,13,25,24.00
2015,07,09,13,26,24.00
2015,07,09,13,27,24.00
2015,07,09,13,28,24.00
2015,07,09,13,29,24.10
2015,07,09,13,30,24.10
2015,07,09,13,31,24.20
2015,07,09,13,32,24.20
2015,07,09,13,33,24.20
2015,07,09,13,34,24.30
2015,07,09,13,35,24.30
2015,07,09,13,36,24.30
2015,07,09,13,37,24.30
2015,07,09,13,38,24.40
2015,07,09,13,39,24.40
2015,07,09,13,40,24.50
2015,07,09,13,41,24.60
2015,07,09,13,42,24.60
2015,07,09,13,43,24.60
2015,07,09,13,44,24.50
2015,07,09,13,45,24.50
2015,07,09,13,46,24.50
2015,07,09,13,47,24.50
2015,07,09,13,48,24.40
2015,07,09,13,49,24.50
2015,07,09,13,50,24.50
2015,07,09,13,51,24.40
2015,07,09,13,52,24.40
2015,07,09,13,53,24.40
2015,07,09,13,54,24.50
2015,07,09,13,55,24.40
2015,07,09,13,56,24.40
2015,07,09,13,57,24.50
2015,07,09,13,58,24.60
2015,07,09,13,59,24.70
2015,07,09,14,00,24.70
2015,07,09,14,01,24.60
2015,07,09,14,02,24.60
2015,07,09,14,03,24.50
2015,07,09,14,04,24.40
2015,07,09,14,05,24.40
2015,07,09,14,06,24.40
2015,07,09,14,07,24.50
2015,07,09,14,08,24.60
2015,07,09,14,09,24.70
2015,07,09,14,10,24.90
2015,07,09,14,11,25.00
2015,07,09,14,12,25.10
2015,07,09,14,13,25.10
2015,07,09,14,14,25.20
2015,07,09,14,15,25.10
2015,07,09,14,16,25.10
2015,07,09,14,17,25.10
2015,07,09,14,18,25.10
2015,07,09,14,19,25.10
2015,07,09,14,20,25.20
2015,07,09,14,21,25.20
2015,07,09,14,22,25.20
2015,07,09,14,23,25.20
2015,07,09,14,24,25.20
2015,07,09,14,25,25.20
2015,07,09,14,26,25.10
2015,07,09,14,27,25.10
2015,07,09,14,28,25.00
2015,07,09,14,29,24.90
2015,07,09,14,30,24.80
2015,07,09,14,31,24.80
2015,07,09,14,32,24.80
2015,07,09,14,33,24.70
2015,07,09,14,34,24.80
2015,07,09,14,35,24.80
2015,07,09,14,36,24.80
2015,07,09,14,37,24.90
2015,07,09,14,38,24.90
2015,07,09,14,39,25.00
2015,07,09,14,40,25.10
2015,07,09,14,41,25.20
2015,07,09,14,42,25.30
2015,07,09,14,43,25.40
2015,07,09,14,44,25.50
2015,07,09,14,45,25.50
2015,07,09,14,46,25.50
2015,07,09,14,47,25.50
2015,07,09,14,48,25.40
2015,07,09,14,49,25.40
2015,07,09,14,50,25.30
2015,07,09,14,51,25.20
2015,07,09,14,52,25.20
2015,07,09,14,53,25.10
2015,07,09,14,54,25.10
2015,07,09,14,55,25.10
2015,07,09,14,56,25.10
2015,07,09,14,57,25.10
2015,07,09,14,58,25.10
2015,07,09,14,59,25.20
2015,07,09,15,00,25.20
2015,07,09,15,01,25.20
2015,07,09,15,02,25.20
2015,07,09,15,03,25.10
2015,07,09,15,04,25.10
2015,07,09,15,05,25.00
2015,07,09,15,06,25.00
2015,07,09,15,07,25.10
2015,07,09,15,08,25.20
2015,07,09,15,09,25.20
2015,07,09,15,10,25.20
2015,07,09,15,11,25.20
2015,07,09,15,12,25.30
2015,07,09,15,13,25.30
2015,07,09,15,14,25.30
2015,07,09,15,15,25.30
2015,07,09,15,16,25.40
2015,07,09,15,17,25.40
2015,07,09,15,18,25.50
2015,07,09,15,19,25.50
2015,07,09,15,20,25.40
2015,07,09,15,21,25.40
2015,07,09,15,22,25.40
2015,07,09,15,23,25.40
2015,07,09,15,24,25.40
2015,07,09,15,25,25.40
2015,07,09,15,26,25.50
2015,07,09,15,27,25.50
2015,07,09,15,28,25.60
2015,07,09,15,29,25.60
2015,07,09,15,30,25.60
2015,07,09,15,31,25.70
2015,07,09,15,32,25.80
2015,07,09,15,33,25.90
2015,07,09,15,34,26.00
2015,07,09,15,35,26.00
2015,07,09,15,36,26.10
2015,07,09,15,37,26.00
2015,07,09,15,38,25.90
2015,07,09,15,39,25.90
2015,07,09,15,40,25.90
2015,07,09,15,41,25.90
2015,07,09,15,42,25.90
2015,07,09,15,43,25.90
2015,07,09,15,44,25.90
2015,07,09,15,45,25.90
2015,07,09,15,46,25.90
2015,07,09,15,47,25.90
2015,07,09,15,48,25.90
2015,07,09,15,49,25.90
2015,07,09,15,50,25.90
2015,07,09,15,51,26.00
2015,07,09,15,52,26.20
2015,07,09,15,53,26.40
2015,07,09,15,54,26.50
2015,07,09,15,55,26.60
2015,07,09,15,56,26.70
2015,07,09,15,57,26.70
2015,07,09,15,58,26.70
2015,07,09,15,59,26.70
2015,07,09,16,00,26.60
2015,07,09,16,01,26.60
2015,07,09,16,02,26.60
2015,07,09,16,03,26.60
2015,07,09,16,04,26.50
2015,07,09,16,05,26.50
2015,07,09,16,06,26.40
2015,07,09,16,07,26.30
2015,07,09,16,08,26.30
2015,07,09,16,09,26.30
2015,07,09,16,10,26.20
2015,07,09,16,11,26.20
2015,07,09,16,12,26.20
2015,07,09,16,13,26.20
2015,07,09,16,14,26.10
2015,07,09,16,15,26.10
2015,07,09,16,16,26.10
2015,07,09,16,17,26.10
2015,07,09,16,18,26.20
2015,07,09,16,19,26.30
2015,07,09,16,20,26.30
2015,07,09,16,21,26.40
2015,07,09,16,22,26.40
2015,07,09,16,23,26.40
2015,07,09,16,24,26.50
2015,07,09,16,25,26.50
2015,07,09,16,26,26.40
2015,07,09,16,27,26.40
2015,07,09,16,28,26.30
2015,07,09,16,29,26.30
2015,07,09,16,30,26.30
2015,07,09,16,31,26.30
2015,07,09,16,32,26.40
2015,07,09,16,33,26.40
2015,07,09,16,34,26.30
2015,07,09,16,35,26.30
2015,07,09,16,36,26.30
2015,07,09,16,37,26.20
2015,07,09,16,38,26.30
2015,07,09,16,39,26.30
2015,07,09,16,40,26.20
2015,07,09,16,41,26.20
2015,07,09,16,42,26.10
2015,07,09,16,43,26.10
2015,07,09,16,44,26.10
2015,07,09,16,45,26.20
2015,07,09,16,46,26.30
2015,07,09,16,47,26.40
2015,07,09,16,48,26.50
2015,07,09,16,49,26.50
2015,07,09,16,50,26.50
2015,07,09,16,51,26.40
2015,07,09,16,52,26.30
2015,07,09,16,53,26.20
2015,07,09,16,54,26.10
2015,07,09,16,55,26.10
2015,07,09,16,56,26.10
2015,07,09,16,57,26.20
2015,07,09,16,58,26.20
2015,07,09,16,59,26.20
2015,07,09,17,00,26.20
2015,07,09,17,01,26.30
2015,07,09,17,02,26.40
2015,07,09,17,03,26.50
2015,07,09,17,04,26.50
2015,07,09,17,05,26.60
2015,07,09,17,06,26.70
2015,07,09,17,07,26.80
2015,07,09,17,08,26.90
2015,07,09,17,09,26.90
2015,07,09,17,10,26.90
2015,07,09,17,11,26.90
2015,07,09,17,12,26.90
2015,07,09,17,13,26.90
2015,07,09,17,14,26.90
2015,07,09,17,15,27.00
2015,07,09,17,16,27.10
2015,07,09,17,17,27.20
2015,07,09,17,18,27.20
2015,07,09,17,19,27.20
2015,07,09,17,20,27.20
2015,07,09,17,21,27.20
2015,07,09,17,22,27.20